This is the latest recevied weather packets stored in our database for station/object WY7EM. If no packets are shown the sender has not sent any weather packets the latest 10 day(s).
| Time | Temp. | Humidity | Pressure | Rain* | Wind** | Luminosity | Snow |
|---|---|---|---|---|---|---|---|
| 1777848825 | 25.56° C | 21% | 1010.5 hPa | 0 mm | - | 187 W/m² | - |
| 1777848522 | 25.56° C | 21% | 1010.5 hPa | 0 mm | - | 199 W/m² | - |
| 1777848219 | 25.56° C | 21% | 1010.6 hPa | 0 mm | - | 223 W/m² | - |
| 1777847917 | 25.56° C | 21% | 1010.6 hPa | 0 mm | - | 225 W/m² | - |
| 1777847615 | 26.11° C | 21% | 1010.7 hPa | 0 mm | - | 235 W/m² | - |
| 1777847310 | 26.11° C | 21% | 1010.7 hPa | 0 mm | - | 270 W/m² | - |
| 1777847009 | 26.11° C | 20% | 1010.8 hPa | 0 mm | - | 327 W/m² | - |
| 1777846706 | 26.11° C | 20% | 1010.7 hPa | 0 mm | - | 335 W/m² | - |
| 1777846405 | 26.11° C | 20% | 1010.8 hPa | 0 mm | - | 324 W/m² | - |
| 1777846100 | 26.11° C | 20% | 1010.7 hPa | 0 mm | - | 353 W/m² | - |
| 1777845798 | 25.56° C | 21% | 1010.7 hPa | 0 mm | - | 265 W/m² | - |
| 1777845494 | 26.11° C | 21% | 1011.1 hPa | 0 mm | - | 244 W/m² | - |
| 1777845192 | 26.11° C | 21% | 1011.1 hPa | 0 mm | - | 250 W/m² | - |
| 1777844889 | 26.11° C | 20% | 1011.1 hPa | 0 mm | - | 248 W/m² | - |
| 1777844586 | 26.67° C | 20% | 1011.1 hPa | 0 mm | - | 276 W/m² | - |
| 1777844284 | 26.67° C | 20% | 1011.2 hPa | 0 mm | - | 293 W/m² | - |
| 1777843981 | 26.67° C | 19% | 1011.3 hPa | 0 mm | - | 278 W/m² | - |
| 1777843678 | 25.56° C | 20% | 1011.3 hPa | 0 mm | - | 242 W/m² | - |
| 1777843376 | 26.11° C | 19% | 1011.4 hPa | 0 mm | - | 244 W/m² | - |
| 1777843073 | 26.11° C | 19% | 1011.8 hPa | 0 mm | - | 286 W/m² | - |
| 1777842769 | 26.67° C | 19% | 1011.6 hPa | 0 mm | - | 338 W/m² | - |
| 1777842464 | 26.11° C | 19% | 1011.8 hPa | 0 mm | - | 261 W/m² | - |
| 1777842162 | 26.67° C | 19% | 1011.8 hPa | 0 mm | - | 283 W/m² | - |
| 1777841862 | 26.11° C | 19% | 1012 hPa | 0 mm | - | 320 W/m² | - |
| 1777841559 | 26.67° C | 19% | 1012.1 hPa | 0 mm | - | 306 W/m² | - |
* Rain latest hour (hover to see other rain measurements)
** Current wind speed in m/s (hover to see current wind gust speed)